This is the latest recevied weather packets stored in our database for station/object N3MFL. If no packets are shown the sender has not sent any weather packets the latest 10 day(s).
| Time | Temp. | Humidity | Pressure | Rain* | Wind** | Luminosity | Snow |
|---|---|---|---|---|---|---|---|
| 1777980195 | 12.22° C | 85% | 1012.1 hPa | 0 mm | - | 70 W/m² | - |
| 1777979890 | 11.67° C | 86% | 1012 hPa | 0 mm | - | 68 W/m² | - |
| 1777979586 | 11.67° C | 87% | 1011.9 hPa | 0 mm | - | 65 W/m² | - |
| 1777979282 | 11.67° C | 88% | 1012 hPa | 0 mm | - | 62 W/m² | - |
| 1777978980 | 11.11° C | 89% | 1012.1 hPa | 0 mm | - | 58 W/m² | - |
| 1777978676 | 11.11° C | 89% | 1012.2 hPa | 0 mm | - | 54 W/m² | - |
| 1777978372 | 10.56° C | 90% | 1012.1 hPa | 0 mm | - | 50 W/m² | - |
| 1777978068 | 10.56° C | 92% | 1012 hPa | 0 mm | - | 47 W/m² | - |
| 1777977766 | 10° C | 93% | 1011.9 hPa | 0 mm | - | 44 W/m² | - |
| 1777977462 | 10° C | 94% | 1012 hPa | 0 mm | - | 41 W/m² | - |
| 1777977160 | 10° C | 95% | 1012.1 hPa | 0 mm | - | 37 W/m² | - |
| 1777976857 | 9.44° C | 95% | 1012.1 hPa | 0 mm | - | 34 W/m² | - |
| 1777976555 | 9.44° C | 95% | 1011.8 hPa | 0 mm | - | 29 W/m² | - |
| 1777976253 | 9.44° C | 96% | 1011.8 hPa | 0 mm | - | 25 W/m² | - |
| 1777975950 | 9.44° C | 96% | 1011.8 hPa | 0 mm | - | 21 W/m² | - |
| 1777975646 | 8.89° C | 96% | 1011.7 hPa | 0 mm | - | 17 W/m² | - |
| 1777975344 | 8.89° C | 96% | 1011.9 hPa | 0 mm | - | 14 W/m² | - |
| 1777975044 | 8.89° C | 96% | 1011.7 hPa | 0 mm | - | 11 W/m² | - |
| 1777974742 | 8.89° C | 96% | 1011.7 hPa | 0 mm | - | 9 W/m² | - |
| 1777974437 | 8.89° C | 96% | 1011.8 hPa | 0 mm | - | 7 W/m² | - |
| 1777974134 | 8.89° C | 96% | 1011.7 hPa | 0 mm | - | 4 W/m² | - |
| 1777973830 | 8.89° C | 96% | 1011.9 hPa | 0 mm | - | 3 W/m² | - |
| 1777973528 | 8.89° C | 96% | 1011.9 hPa | 0 mm | - | 1 W/m² | - |
| 1777973224 | 8.89° C | 96% | 1012 hPa | 0 mm | - | 1 W/m² | - |
| 1777972923 | 8.89° C | 96% | 1011.9 hPa | 0 mm | - | 0 W/m² | - |
* Rain latest hour (hover to see other rain measurements)
** Current wind speed in m/s (hover to see current wind gust speed)